owner,sensor,date,latitude,longitude,vertical_datum,wind_speed,wind_to_direction,wind_speed_of_gust,qcFlag 
WAVCIS,ioos:station:WAVCIS:CSI15:1,2011-01-01T00:00:00Z,28.8332,-90.8320,10.0,11.32,122.0,,'11111222,11111222,99999999' 
WAVCIS,ioos:station:WAVCIS:CSI15:1,2011-01-01T01:00:00Z,28.8332,-90.8320,10.0,11.16,131.0,,'11111222,11111222,99999999' 
WAVCIS,ioos:station:WAVCIS:CSI15:1,2011-01-01T02:00:00Z,28.8332,-90.8320,10.0,10.74,135.0,,'11111222,11111222,99999999' 
WAVCIS,ioos:station:WAVCIS:CSI15:1,2011-01-01T03:00:00Z,28.8332,-90.8320,10.0,11.34,128.0,,'11111222,11111222,99999999' 
WAVCIS,ioos:station:WAVCIS:CSI15:1,2011-01-01T04:00:00Z,28.8332,-90.8320,10.0,11.42,132.0,,'11111222,11111222,99999999' 
WAVCIS,ioos:station:WAVCIS:CSI15:1,2011-01-01T05:00:00Z,28.8332,-90.8320,10.0,8.84,142.0,,'11111222,11111222,99999999' 
WAVCIS,ioos:station:WAVCIS:CSI15:1,2011-01-01T06:00:00Z,28.8332,-90.8320,10.0,8.68,144.0,,'11111222,11111222,99999999' 
WAVCIS,ioos:station:WAVCIS:CSI15:1,2011-01-01T07:00:00Z,28.8332,-90.8320,10.0,9.25,143.0,,'11111222,11111222,99999999' 
WAVCIS,ioos:station:WAVCIS:CSI15:1,2011-01-01T08:00:00Z,28.8332,-90.8320,10.0,9.41,142.0,,'11111222,11111222,99999999' 
WAVCIS,ioos:station:WAVCIS:CSI15:1,2011-01-01T09:00:00Z,28.8332,-90.8320,10.0,8.38,147.0,,'11111222,11111222,99999999' 
WAVCIS,ioos:station:WAVCIS:CSI15:1,2011-01-01T10:00:00Z,28.8332,-90.8320,10.0,7.53,153.0,,'11111222,11111222,99999999' 
WAVCIS,ioos:station:WAVCIS:CSI15:1,2011-01-01T11:00:00Z,28.8332,-90.8320,10.0,7.26,156.0,,'11111222,11111222,99999999' 
WAVCIS,ioos:station:WAVCIS:CSI15:1,2011-01-01T12:00:00Z,28.8332,-90.8320,10.0,7.97,153.0,,'11111222,11111222,99999999' 
WAVCIS,ioos:station:WAVCIS:CSI15:1,2011-01-01T13:00:00Z,28.8332,-90.8320,10.0,6.955,151.0,,'11111222,11111222,99999999' 
WAVCIS,ioos:station:WAVCIS:CSI15:1,2011-01-01T14:00:00Z,28.8332,-90.8320,10.0,8.71,158.0,,'11111222,11111222,99999999' 
WAVCIS,ioos:station:WAVCIS:CSI15:1,2011-01-01T15:00:00Z,28.8332,-90.8320,10.0,8.83,174.0,,'11111222,11111222,99999999' 
WAVCIS,ioos:station:WAVCIS:CSI15:1,2011-01-01T16:00:00Z,28.8332,-90.8320,10.0,9.23,181.0,,'11111222,11111222,99999999' 
WAVCIS,ioos:station:WAVCIS:CSI15:1,2011-01-01T17:00:00Z,28.8332,-90.8320,10.0,8.26,187.0,,'11111222,11111222,99999999' 
WAVCIS,ioos:station:WAVCIS:CSI15:1,2011-01-01T18:00:00Z,28.8332,-90.8320,10.0,7.15,200.0,,'11111222,11111222,99999999' 
WAVCIS,ioos:station:WAVCIS:CSI15:1,2011-01-01T19:00:00Z,28.8332,-90.8320,10.0,6.191,297.0,,'11111222,11111222,99999999' 
WAVCIS,ioos:station:WAVCIS:CSI15:1,2011-01-01T20:00:00Z,28.8332,-90.8320,10.0,9.03,332.0,,'11111222,11111222,99999999' 
WAVCIS,ioos:station:WAVCIS:CSI15:1,2011-01-01T21:00:00Z,28.8332,-90.8320,10.0,9.36,341.0,,'11111222,11111222,99999999' 
WAVCIS,ioos:station:WAVCIS:CSI15:1,2011-01-01T22:00:00Z,28.8332,-90.8320,10.0,10.22,1.0,,'11111222,11111222,99999999' 
WAVCIS,ioos:station:WAVCIS:CSI15:1,2011-01-01T23:00:00Z,28.8332,-90.8320,10.0,9.11,7.0,,'11111222,11111222,99999999' 
WAVCIS,ioos:station:WAVCIS:CSI15:1,2011-01-02T00:00:00Z,28.8332,-90.8320,10.0,12.69,0.0,,'11111222,11111222,99999999' 
WAVCIS,ioos:station:WAVCIS:CSI15:1,2011-01-02T01:00:00Z,28.8332,-90.8320,10.0,11.36,358.0,,'11111222,11111222,99999999' 
WAVCIS,ioos:station:WAVCIS:CSI15:1,2011-01-02T02:00:00Z,28.8332,-90.8320,10.0,13.71,357.0,,'11111222,11111222,99999999' 
WAVCIS,ioos:station:WAVCIS:CSI15:1,2011-01-02T03:00:00Z,28.8332,-90.8320,10.0,14.82,347.0,,'11111222,11111222,99999999' 
WAVCIS,ioos:station:WAVCIS:CSI15:1,2011-01-02T04:00:00Z,28.8332,-90.8320,10.0,13.03,0.0,,'11111222,11111222,99999999' 
WAVCIS,ioos:station:WAVCIS:CSI15:1,2011-01-02T05:00:00Z,28.8332,-90.8320,10.0,11.55,4.0,,'11111222,11111222,99999999' 
WAVCIS,ioos:station:WAVCIS:CSI15:1,2011-01-02T06:00:00Z,28.8332,-90.8320,10.0,12.07,6.0,,'11111222,11111222,99999999' 
WAVCIS,ioos:station:WAVCIS:CSI15:1,2011-01-02T07:00:00Z,28.8332,-90.8320,10.0,9.77,342.0,,'11111222,11111222,99999999' 
WAVCIS,ioos:station:WAVCIS:CSI15:1,2011-01-02T08:00:00Z,28.8332,-90.8320,10.0,10.07,341.0,,'11111222,11111222,99999999' 
WAVCIS,ioos:station:WAVCIS:CSI15:1,2011-01-02T09:00:00Z,28.8332,-90.8320,10.0,10.83,333.0,,'11111222,11111222,99999999' 
WAVCIS,ioos:station:WAVCIS:CSI15:1,2011-01-02T10:00:00Z,28.8332,-90.8320,10.0,11.28,336.0,,'11111222,11111222,99999999' 
WAVCIS,ioos:station:WAVCIS:CSI15:1,2011-01-02T11:00:00Z,28.8332,-90.8320,10.0,12.86,336.0,,'11111222,11111222,99999999' 
WAVCIS,ioos:station:WAVCIS:CSI15:1,2011-01-02T12:00:00Z,28.8332,-90.8320,10.0,12.84,341.0,,'11111222,11111222,99999999' 
WAVCIS,ioos:station:WAVCIS:CSI15:1,2011-01-02T13:00:00Z,28.8332,-90.8320,10.0,12.42,345.0,,'11111222,11111222,99999999' 
WAVCIS,ioos:station:WAVCIS:CSI15:1,2011-01-02T14:00:00Z,28.8332,-90.8320,10.0,12.53,342.0,,'11111222,11111222,99999999' 
WAVCIS,ioos:station:WAVCIS:CSI15:1,2011-01-02T15:00:00Z,28.8332,-90.8320,10.0,11.14,349.0,,'11111222,11111222,99999999' 
WAVCIS,ioos:station:WAVCIS:CSI15:1,2011-01-02T16:00:00Z,28.8332,-90.8320,10.0,9.51,352.0,,'11111222,11111222,99999999' 
WAVCIS,ioos:station:WAVCIS:CSI15:1,2011-01-02T17:00:00Z,28.8332,-90.8320,10.0,9.18,356.0,,'11111222,11111222,99999999' 
WAVCIS,ioos:station:WAVCIS:CSI15:1,2011-01-02T18:00:00Z,28.8332,-90.8320,10.0,8.43,352.0,,'11111222,11111222,99999999' 
WAVCIS,ioos:station:WAVCIS:CSI15:1,2011-01-02T19:00:00Z,28.8332,-90.8320,10.0,8.62,348.0,,'11111222,11111222,99999999' 
WAVCIS,ioos:station:WAVCIS:CSI15:1,2011-01-02T20:00:00Z,28.8332,-90.8320,10.0,6.314,347.0,,'11111222,11111222,99999999' 
WAVCIS,ioos:station:WAVCIS:CSI15:1,2011-01-02T21:00:00Z,28.8332,-90.8320,10.0,7.05,344.0,,'11111222,11111222,99999999' 
WAVCIS,ioos:station:WAVCIS:CSI15:1,2011-01-02T22:00:00Z,28.8332,-90.8320,10.0,7.66,346.0,,'11111222,11111222,99999999' 
WAVCIS,ioos:station:WAVCIS:CSI15:1,2011-01-02T23:00:00Z,28.8332,-90.8320,10.0,6.354,2.0,,'11111222,11111222,99999999' 
WAVCIS,ioos:station:WAVCIS:CSI15:1,2011-01-03T00:00:00Z,28.8332,-90.8320,10.0,8.31,357.0,,'11111222,11111222,99999999' 
WAVCIS,ioos:station:WAVCIS:CSI15:1,2011-01-03T01:00:00Z,28.8332,-90.8320,10.0,9.02,1.0,,'11111222,11111222,99999999' 
WAVCIS,ioos:station:WAVCIS:CSI15:1,2011-01-03T02:00:00Z,28.8332,-90.8320,10.0,10.05,356.0,,'11111222,11111222,99999999' 
WAVCIS,ioos:station:WAVCIS:CSI15:1,2011-01-03T03:00:00Z,28.8332,-90.8320,10.0,10.12,1.0,,'11111222,11111222,99999999' 
WAVCIS,ioos:station:WAVCIS:CSI15:1,2011-01-03T04:00:00Z,28.8332,-90.8320,10.0,9.79,9.0,,'11111222,11111222,99999999' 
WAVCIS,ioos:station:WAVCIS:CSI15:1,2011-01-03T05:00:00Z,28.8332,-90.8320,10.0,9.19,16.0,,'11111222,11111222,99999999' 
WAVCIS,ioos:station:WAVCIS:CSI15:1,2011-01-03T06:00:00Z,28.8332,-90.8320,10.0,9.43,18.0,,'11111222,11111222,99999999' 
WAVCIS,ioos:station:WAVCIS:CSI15:1,2011-01-03T07:00:00Z,28.8332,-90.8320,10.0,9.21,23.0,,'11111222,11111222,99999999' 
WAVCIS,ioos:station:WAVCIS:CSI15:1,2011-01-03T08:00:00Z,28.8332,-90.8320,10.0,8.49,25.0,,'11111222,11111222,99999999' 
WAVCIS,ioos:station:WAVCIS:CSI15:1,2011-01-03T09:00:00Z,28.8332,-90.8320,10.0,8.68,24.0,,'11111222,11111222,99999999' 
WAVCIS,ioos:station:WAVCIS:CSI15:1,2011-01-03T10:00:00Z,28.8332,-90.8320,10.0,8.33,33.0,,'11111222,11111222,99999999' 
WAVCIS,ioos:station:WAVCIS:CSI15:1,2011-01-03T11:00:00Z,28.8332,-90.8320,10.0,8.07,35.0,,'11111222,11111222,99999999' 
WAVCIS,ioos:station:WAVCIS:CSI15:1,2011-01-03T12:00:00Z,28.8332,-90.8320,10.0,7.93,33.0,,'11111222,11111222,99999999' 
WAVCIS,ioos:station:WAVCIS:CSI15:1,2011-01-03T13:00:00Z,28.8332,-90.8320,10.0,7.88,27.0,,'11111222,11111222,99999999' 
WAVCIS,ioos:station:WAVCIS:CSI15:1,2011-01-03T14:00:00Z,28.8332,-90.8320,10.0,8.39,26.0,,'11111222,11111222,99999999' 
WAVCIS,ioos:station:WAVCIS:CSI15:1,2011-01-03T15:00:00Z,28.8332,-90.8320,10.0,7.98,30.0,,'11111222,11111222,99999999' 
WAVCIS,ioos:station:WAVCIS:CSI15:1,2011-01-03T16:00:00Z,28.8332,-90.8320,10.0,7.57,29.0,,'11111222,11111222,99999999' 
WAVCIS,ioos:station:WAVCIS:CSI15:1,2011-01-03T17:00:00Z,28.8332,-90.8320,10.0,7.59,45.0,,'11111222,11111222,99999999' 
WAVCIS,ioos:station:WAVCIS:CSI15:1,2011-01-03T18:00:00Z,28.8332,-90.8320,10.0,8.52,48.0,,'11111222,11111222,99999999' 
WAVCIS,ioos:station:WAVCIS:CSI15:1,2011-01-03T19:00:00Z,28.8332,-90.8320,10.0,7.96,53.0,,'11111222,11111222,99999999' 
WAVCIS,ioos:station:WAVCIS:CSI15:1,2011-01-03T20:00:00Z,28.8332,-90.8320,10.0,6.177,57.0,,'11111222,11111222,99999999' 
WAVCIS,ioos:station:WAVCIS:CSI15:1,2011-01-03T21:00:00Z,28.8332,-90.8320,10.0,6.63,51.0,,'11111222,11111222,99999999' 
WAVCIS,ioos:station:WAVCIS:CSI15:1,2011-01-03T22:00:00Z,28.8332,-90.8320,10.0,6.095,44.0,,'11111222,11111222,99999999' 
WAVCIS,ioos:station:WAVCIS:CSI15:1,2011-01-03T23:00:00Z,28.8332,-90.8320,10.0,6.848,35.0,,'11111222,11111222,99999999' 
WAVCIS,ioos:station:WAVCIS:CSI15:1,2011-01-04T00:00:00Z,28.8332,-90.8320,10.0,7.08,38.0,,'11111222,11111222,99999999' 
WAVCIS,ioos:station:WAVCIS:CSI15:1,2011-01-04T01:00:00Z,28.8332,-90.8320,10.0,7.52,38.0,,'11111222,11111222,99999999' 
WAVCIS,ioos:station:WAVCIS:CSI15:1,2011-01-04T02:00:00Z,28.8332,-90.8320,10.0,7.72,42.0,,'11111222,11111222,99999999' 
WAVCIS,ioos:station:WAVCIS:CSI15:1,2011-01-04T03:00:00Z,28.8332,-90.8320,10.0,7.16,45.0,,'11111222,11111222,99999999' 
WAVCIS,ioos:station:WAVCIS:CSI15:1,2011-01-04T04:00:00Z,28.8332,-90.8320,10.0,6.161,45.0,,'11111222,11111222,99999999' 
WAVCIS,ioos:station:WAVCIS:CSI15:1,2011-01-04T05:00:00Z,28.8332,-90.8320,10.0,6.451,59.0,,'11111222,11111222,99999999' 
WAVCIS,ioos:station:WAVCIS:CSI15:1,2011-01-04T06:00:00Z,28.8332,-90.8320,10.0,5.975,47.0,,'11111222,11111222,99999999' 
WAVCIS,ioos:station:WAVCIS:CSI15:1,2011-01-04T07:00:00Z,28.8332,-90.8320,10.0,5.256,57.0,,'11111222,11111222,99999999' 
WAVCIS,ioos:station:WAVCIS:CSI15:1,2011-01-04T08:00:00Z,28.8332,-90.8320,10.0,4.669,52.0,,'11111222,11111222,99999999' 
WAVCIS,ioos:station:WAVCIS:CSI15:1,2011-01-04T09:00:00Z,28.8332,-90.8320,10.0,4.972,43.0,,'11111222,11111222,99999999' 
WAVCIS,ioos:station:WAVCIS:CSI15:1,2011-01-04T10:00:00Z,28.8332,-90.8320,10.0,4.548,29.0,,'11111222,11111222,99999999' 
WAVCIS,ioos:station:WAVCIS:CSI15:1,2011-01-04T11:00:00Z,28.8332,-90.8320,10.0,4.458,13.0,,'11111222,11111222,99999999' 
WAVCIS,ioos:station:WAVCIS:CSI15:1,2011-01-04T12:00:00Z,28.8332,-90.8320,10.0,6.728,4.0,,'11111222,11111222,99999999' 
WAVCIS,ioos:station:WAVCIS:CSI15:1,2011-01-04T13:00:00Z,28.8332,-90.8320,10.0,6.396,23.0,,'11111222,11111222,99999999' 
WAVCIS,ioos:station:WAVCIS:CSI15:1,2011-01-04T14:00:00Z,28.8332,-90.8320,10.0,6.18,32.0,,'11111222,11111222,99999999' 
WAVCIS,ioos:station:WAVCIS:CSI15:1,2011-01-04T15:00:00Z,28.8332,-90.8320,10.0,7.28,17.0,,'11111222,11111222,99999999' 
WAVCIS,ioos:station:WAVCIS:CSI15:1,2011-01-04T16:00:00Z,28.8332,-90.8320,10.0,5.761,30.0,,'11111222,11111222,99999999' 
WAVCIS,ioos:station:WAVCIS:CSI15:1,2011-01-04T17:00:00Z,28.8332,-90.8320,10.0,6.112,32.0,,'11111222,11111222,99999999' 
WAVCIS,ioos:station:WAVCIS:CSI15:1,2011-01-04T18:00:00Z,28.8332,-90.8320,10.0,6.456,27.0,,'11111222,11111222,99999999' 
WAVCIS,ioos:station:WAVCIS:CSI15:1,2011-01-04T19:00:00Z,28.8332,-90.8320,10.0,5.465,37.0,,'11111222,11111222,99999999' 
WAVCIS,ioos:station:WAVCIS:CSI15:1,2011-01-04T20:00:00Z,28.8332,-90.8320,10.0,5.305,60.0,,'11111222,11111222,99999999' 
WAVCIS,ioos:station:WAVCIS:CSI15:1,2011-01-04T21:00:00Z,28.8332,-90.8320,10.0,5.94,46.0,,'11111222,11111222,99999999' 
WAVCIS,ioos:station:WAVCIS:CSI15:1,2011-01-04T22:00:00Z,28.8332,-90.8320,10.0,6.007,49.0,,'11111222,11111222,99999999' 
WAVCIS,ioos:station:WAVCIS:CSI15:1,2011-01-04T23:00:00Z,28.8332,-90.8320,10.0,6.688,66.0,,'11111222,11111222,99999999' 
WAVCIS,ioos:station:WAVCIS:CSI15:1,2011-01-05T00:00:00Z,28.8332,-90.8320,10.0,8.02,83.0,,'11111222,11111222,99999999' 
WAVCIS,ioos:station:WAVCIS:CSI15:1,2011-01-05T01:00:00Z,28.8332,-90.8320,10.0,6.946,83.0,,'11111222,11111222,99999999' 
WAVCIS,ioos:station:WAVCIS:CSI15:1,2011-01-05T02:00:00Z,28.8332,-90.8320,10.0,5.978,89.0,,'11111222,11111222,99999999' 
WAVCIS,ioos:station:WAVCIS:CSI15:1,2011-01-05T03:00:00Z,28.8332,-90.8320,10.0,5.512,81.0,,'11111222,11111222,99999999' 
WAVCIS,ioos:station:WAVCIS:CSI15:1,2011-01-05T04:00:00Z,28.8332,-90.8320,10.0,4.237,83.0,,'11111222,11111222,99999999' 
WAVCIS,ioos:station:WAVCIS:CSI15:1,2011-01-05T05:00:00Z,28.8332,-90.8320,10.0,6.068,97.0,,'11111222,11111222,99999999' 
WAVCIS,ioos:station:WAVCIS:CSI15:1,2011-01-05T06:00:00Z,28.8332,-90.8320,10.0,6.612,103.0,,'11111222,11111222,99999999' 
WAVCIS,ioos:station:WAVCIS:CSI15:1,2011-01-05T07:00:00Z,28.8332,-90.8320,10.0,7.46,104.0,,'11111222,11111222,99999999' 
WAVCIS,ioos:station:WAVCIS:CSI15:1,2011-01-05T08:00:00Z,28.8332,-90.8320,10.0,7.69,113.0,,'11111222,11111222,99999999' 
WAVCIS,ioos:station:WAVCIS:CSI15:1,2011-01-05T09:00:00Z,28.8332,-90.8320,10.0,6.911,134.0,,'11111222,11111222,99999999' 
WAVCIS,ioos:station:WAVCIS:CSI15:1,2011-01-05T10:00:00Z,28.8332,-90.8320,10.0,7.59,147.0,,'11111222,11111222,99999999' 
WAVCIS,ioos:station:WAVCIS:CSI15:1,2011-01-05T11:00:00Z,28.8332,-90.8320,10.0,9.64,163.0,,'11111222,11111222,99999999' 
WAVCIS,ioos:station:WAVCIS:CSI15:1,2011-01-05T12:00:00Z,28.8332,-90.8320,10.0,10.03,172.0,,'11111222,11111222,99999999' 
WAVCIS,ioos:station:WAVCIS:CSI15:1,2011-01-05T13:00:00Z,28.8332,-90.8320,10.0,9.41,178.0,,'11111222,11111222,99999999' 
WAVCIS,ioos:station:WAVCIS:CSI15:1,2011-01-05T14:00:00Z,28.8332,-90.8320,10.0,7.37,198.0,,'11111222,11111222,99999999' 
WAVCIS,ioos:station:WAVCIS:CSI15:1,2011-01-05T15:00:00Z,28.8332,-90.8320,10.0,6.674,205.0,,'11111222,11111222,99999999' 
WAVCIS,ioos:station:WAVCIS:CSI15:1,2011-01-05T16:00:00Z,28.8332,-90.8320,10.0,7.18,208.0,,'11111222,11111222,99999999' 
WAVCIS,ioos:station:WAVCIS:CSI15:1,2011-01-05T17:00:00Z,28.8332,-90.8320,10.0,8.59,203.0,,'11111222,11111222,99999999' 
WAVCIS,ioos:station:WAVCIS:CSI15:1,2011-01-05T18:00:00Z,28.8332,-90.8320,10.0,8.69,208.0,,'11111222,11111222,99999999' 
WAVCIS,ioos:station:WAVCIS:CSI15:1,2011-01-05T19:00:00Z,28.8332,-90.8320,10.0,7.65,216.0,,'11111222,11111222,99999999' 
WAVCIS,ioos:station:WAVCIS:CSI15:1,2011-01-05T20:00:00Z,28.8332,-90.8320,10.0,10.3,209.0,,'11111222,11111222,99999999' 
WAVCIS,ioos:station:WAVCIS:CSI15:1,2011-01-05T21:00:00Z,28.8332,-90.8320,10.0,10.38,211.0,,'11111222,11111222,99999999' 
WAVCIS,ioos:station:WAVCIS:CSI15:1,2011-01-05T22:00:00Z,28.8332,-90.8320,10.0,6.176,257.0,,'11111222,11111222,99999999' 
WAVCIS,ioos:station:WAVCIS:CSI15:1,2011-01-05T23:00:00Z,28.8332,-90.8320,10.0,6.135,257.0,,'11111222,11111222,99999999' 
WAVCIS,ioos:station:WAVCIS:CSI15:1,2011-01-06T00:00:00Z,28.8332,-90.8320,10.0,9.17,211.0,,'11111222,11111222,99999999' 
WAVCIS,ioos:station:WAVCIS:CSI15:1,2011-01-06T01:00:00Z,28.8332,-90.8320,10.0,6.744,253.0,,'11111222,11111222,99999999' 
WAVCIS,ioos:station:WAVCIS:CSI15:1,2011-01-06T02:00:00Z,28.8332,-90.8320,10.0,6.032,252.0,,'11111222,11111222,99999999' 
WAVCIS,ioos:station:WAVCIS:CSI15:1,2011-01-06T03:00:00Z,28.8332,-90.8320,10.0,5.98,262.0,,'11111222,11111222,99999999' 
WAVCIS,ioos:station:WAVCIS:CSI15:1,2011-01-06T04:00:00Z,28.8332,-90.8320,10.0,6.473,264.0,,'11111222,11111222,99999999' 
WAVCIS,ioos:station:WAVCIS:CSI15:1,2011-01-06T05:00:00Z,28.8332,-90.8320,10.0,6.501,277.0,,'11111222,11111222,99999999' 
WAVCIS,ioos:station:WAVCIS:CSI15:1,2011-01-06T06:00:00Z,28.8332,-90.8320,10.0,9.24,287.0,,'11111222,11111222,99999999' 
WAVCIS,ioos:station:WAVCIS:CSI15:1,2011-01-06T07:00:00Z,28.8332,-90.8320,10.0,9.51,316.0,,'11111222,11111222,99999999' 
WAVCIS,ioos:station:WAVCIS:CSI15:1,2011-01-06T08:00:00Z,28.8332,-90.8320,10.0,9.01,322.0,,'11111222,11111222,99999999' 
WAVCIS,ioos:station:WAVCIS:CSI15:1,2011-01-06T09:00:00Z,28.8332,-90.8320,10.0,9.05,329.0,,'11111222,11111222,99999999' 
WAVCIS,ioos:station:WAVCIS:CSI15:1,2011-01-06T10:00:00Z,28.8332,-90.8320,10.0,8.66,338.0,,'11111222,11111222,99999999' 
WAVCIS,ioos:station:WAVCIS:CSI15:1,2011-01-06T11:00:00Z,28.8332,-90.8320,10.0,6.598,346.0,,'11111222,11111222,99999999' 
WAVCIS,ioos:station:WAVCIS:CSI15:1,2011-01-06T12:00:00Z,28.8332,-90.8320,10.0,7.38,346.0,,'11111222,11111222,99999999' 
WAVCIS,ioos:station:WAVCIS:CSI15:1,2011-01-06T13:00:00Z,28.8332,-90.8320,10.0,7.08,333.0,,'11111222,11111222,99999999' 
WAVCIS,ioos:station:WAVCIS:CSI15:1,2011-01-06T14:00:00Z,28.8332,-90.8320,10.0,7.82,327.0,,'11111222,11111222,99999999' 
WAVCIS,ioos:station:WAVCIS:CSI15:1,2011-01-06T15:00:00Z,28.8332,-90.8320,10.0,5.719,327.0,,'11111222,11111222,99999999' 
WAVCIS,ioos:station:WAVCIS:CSI15:1,2011-01-06T16:00:00Z,28.8332,-90.8320,10.0,4.0,312.0,,'11111222,11111222,99999999' 
WAVCIS,ioos:station:WAVCIS:CSI15:1,2011-01-06T17:00:00Z,28.8332,-90.8320,10.0,4.229,303.0,,'11111222,11111222,99999999' 
WAVCIS,ioos:station:WAVCIS:CSI15:1,2011-01-06T18:00:00Z,28.8332,-90.8320,10.0,4.696,297.0,,'11111222,11111222,99999999' 
WAVCIS,ioos:station:WAVCIS:CSI15:1,2011-01-06T19:00:00Z,28.8332,-90.8320,10.0,4.908,284.0,,'11111222,11111222,99999999' 
WAVCIS,ioos:station:WAVCIS:CSI15:1,2011-01-06T20:00:00Z,28.8332,-90.8320,10.0,5.769,254.0,,'11111222,11111222,99999999' 
WAVCIS,ioos:station:WAVCIS:CSI15:1,2011-01-06T21:00:00Z,28.8332,-90.8320,10.0,7.73,260.0,,'11111222,11111222,99999999' 
WAVCIS,ioos:station:WAVCIS:CSI15:1,2011-01-06T22:00:00Z,28.8332,-90.8320,10.0,8.99,263.0,,'11111222,11111222,99999999' 
WAVCIS,ioos:station:WAVCIS:CSI15:1,2011-01-06T23:00:00Z,28.8332,-90.8320,10.0,10.66,259.0,,'11111222,11111222,99999999' 
WAVCIS,ioos:station:WAVCIS:CSI15:1,2011-01-07T00:00:00Z,28.8332,-90.8320,10.0,10.9,255.0,,'11111222,11111222,99999999' 
WAVCIS,ioos:station:WAVCIS:CSI15:1,2011-01-07T01:00:00Z,28.8332,-90.8320,10.0,10.44,253.0,,'11111222,11111222,99999999' 
WAVCIS,ioos:station:WAVCIS:CSI15:1,2011-01-07T02:00:00Z,28.8332,-90.8320,10.0,10.06,261.0,,'11111222,11111222,99999999' 
WAVCIS,ioos:station:WAVCIS:CSI15:1,2011-01-07T03:00:00Z,28.8332,-90.8320,10.0,8.62,266.0,,'11111222,11111222,99999999' 
WAVCIS,ioos:station:WAVCIS:CSI15:1,2011-01-07T04:00:00Z,28.8332,-90.8320,10.0,9.8,269.0,,'11111222,11111222,99999999' 
WAVCIS,ioos:station:WAVCIS:CSI15:1,2011-01-07T05:00:00Z,28.8332,-90.8320,10.0,10.43,281.0,,'11111222,11111222,99999999' 
WAVCIS,ioos:station:WAVCIS:CSI15:1,2011-01-07T06:00:00Z,28.8332,-90.8320,10.0,8.77,282.0,,'11111222,11111222,99999999' 
WAVCIS,ioos:station:WAVCIS:CSI15:1,2011-01-07T07:00:00Z,28.8332,-90.8320,10.0,6.744,285.0,,'11111222,11111222,99999999' 
WAVCIS,ioos:station:WAVCIS:CSI15:1,2011-01-07T08:00:00Z,28.8332,-90.8320,10.0,5.758,269.0,,'11111222,11111222,99999999' 
WAVCIS,ioos:station:WAVCIS:CSI15:1,2011-01-07T09:00:00Z,28.8332,-90.8320,10.0,5.855,262.0,,'11111222,11111222,99999999' 
WAVCIS,ioos:station:WAVCIS:CSI15:1,2011-01-07T10:00:00Z,28.8332,-90.8320,10.0,5.493,259.0,,'11111222,11111222,99999999' 
WAVCIS,ioos:station:WAVCIS:CSI15:1,2011-01-07T11:00:00Z,28.8332,-90.8320,10.0,5.725,269.0,,'11111222,11111222,99999999' 
WAVCIS,ioos:station:WAVCIS:CSI15:1,2011-01-07T12:00:00Z,28.8332,-90.8320,10.0,5.581,267.0,,'11111222,11111222,99999999' 
WAVCIS,ioos:station:WAVCIS:CSI15:1,2011-01-07T13:00:00Z,28.8332,-90.8320,10.0,4.903,269.0,,'11111222,11111222,99999999' 
WAVCIS,ioos:station:WAVCIS:CSI15:1,2011-01-07T14:00:00Z,28.8332,-90.8320,10.0,6.315,266.0,,'11111222,11111222,99999999' 
WAVCIS,ioos:station:WAVCIS:CSI15:1,2011-01-07T15:00:00Z,28.8332,-90.8320,10.0,5.144,244.0,,'11111222,11111222,99999999' 
WAVCIS,ioos:station:WAVCIS:CSI15:1,2011-01-07T16:00:00Z,28.8332,-90.8320,10.0,5.058,232.0,,'11111222,11111222,99999999' 
WAVCIS,ioos:station:WAVCIS:CSI15:1,2011-01-07T17:00:00Z,28.8332,-90.8320,10.0,6.873,227.0,,'11111222,11111222,99999999' 
WAVCIS,ioos:station:WAVCIS:CSI15:1,2011-01-07T18:00:00Z,28.8332,-90.8320,10.0,7.56,228.0,,'11111222,11111222,99999999' 
WAVCIS,ioos:station:WAVCIS:CSI15:1,2011-01-07T19:00:00Z,28.8332,-90.8320,10.0,9.01,229.0,,'11111222,11111222,99999999' 
WAVCIS,ioos:station:WAVCIS:CSI15:1,2011-01-07T20:00:00Z,28.8332,-90.8320,10.0,8.75,236.0,,'11111222,11111222,99999999' 
WAVCIS,ioos:station:WAVCIS:CSI15:1,2011-01-07T21:00:00Z,28.8332,-90.8320,10.0,10.19,238.0,,'11111222,11111222,99999999' 
WAVCIS,ioos:station:WAVCIS:CSI15:1,2011-01-07T22:00:00Z,28.8332,-90.8320,10.0,8.27,239.0,,'11111222,11111222,99999999' 
WAVCIS,ioos:station:WAVCIS:CSI15:1,2011-01-07T23:00:00Z,28.8332,-90.8320,10.0,8.16,240.0,,'11111222,11111222,99999999' 
WAVCIS,ioos:station:WAVCIS:CSI15:1,2011-01-08T00:00:00Z,28.8332,-90.8320,10.0,8.17,241.0,,'11111222,11111222,99999999' 
WAVCIS,ioos:station:WAVCIS:CSI15:1,2011-01-08T01:00:00Z,28.8332,-90.8320,10.0,6.953,240.0,,'11111222,11111222,99999999' 
WAVCIS,ioos:station:WAVCIS:CSI15:1,2011-01-08T02:00:00Z,28.8332,-90.8320,10.0,7.33,233.0,,'11111222,11111222,99999999' 
WAVCIS,ioos:station:WAVCIS:CSI15:1,2011-01-08T03:00:00Z,28.8332,-90.8320,10.0,7.11,229.0,,'11111222,11111222,99999999' 
WAVCIS,ioos:station:WAVCIS:CSI15:1,2011-01-08T04:00:00Z,28.8332,-90.8320,10.0,7.12,233.0,,'11111222,11111222,99999999' 
WAVCIS,ioos:station:WAVCIS:CSI15:1,2011-01-08T05:00:00Z,28.8332,-90.8320,10.0,7.42,233.0,,'11111222,11111222,99999999' 
WAVCIS,ioos:station:WAVCIS:CSI15:1,2011-01-08T06:00:00Z,28.8332,-90.8320,10.0,7.41,237.0,,'11111222,11111222,99999999' 
WAVCIS,ioos:station:WAVCIS:CSI15:1,2011-01-08T07:00:00Z,28.8332,-90.8320,10.0,8.41,244.0,,'11111222,11111222,99999999' 
WAVCIS,ioos:station:WAVCIS:CSI15:1,2011-01-08T08:00:00Z,28.8332,-90.8320,10.0,8.12,241.0,,'11111222,11111222,99999999' 
WAVCIS,ioos:station:WAVCIS:CSI15:1,2011-01-08T09:00:00Z,28.8332,-90.8320,10.0,8.69,243.0,,'11111222,11111222,99999999' 
WAVCIS,ioos:station:WAVCIS:CSI15:1,2011-01-08T10:00:00Z,28.8332,-90.8320,10.0,8.78,257.0,,'11111222,11111222,99999999' 
WAVCIS,ioos:station:WAVCIS:CSI15:1,2011-01-08T11:00:00Z,28.8332,-90.8320,10.0,9.81,295.0,,'11111222,11111222,99999999' 
WAVCIS,ioos:station:WAVCIS:CSI15:1,2011-01-08T12:00:00Z,28.8332,-90.8320,10.0,8.84,332.0,,'11111222,11111222,99999999' 
WAVCIS,ioos:station:WAVCIS:CSI15:1,2011-01-08T13:00:00Z,28.8332,-90.8320,10.0,8.23,358.0,,'11111222,11111222,99999999' 
WAVCIS,ioos:station:WAVCIS:CSI15:1,2011-01-08T14:00:00Z,28.8332,-90.8320,10.0,6.846,3.0,,'11111222,11111222,99999999' 
WAVCIS,ioos:station:WAVCIS:CSI15:1,2011-01-08T15:00:00Z,28.8332,-90.8320,10.0,6.368,0.0,,'11111222,11111222,99999999' 
WAVCIS,ioos:station:WAVCIS:CSI15:1,2011-01-08T16:00:00Z,28.8332,-90.8320,10.0,4.854,5.0,,'11111222,11111222,99999999' 
WAVCIS,ioos:station:WAVCIS:CSI15:1,2011-01-08T17:00:00Z,28.8332,-90.8320,10.0,3.751,16.0,,'11111222,11111222,99999999' 
WAVCIS,ioos:station:WAVCIS:CSI15:1,2011-01-08T18:00:00Z,28.8332,-90.8320,10.0,3.296,15.0,,'11111222,11111222,99999999' 
WAVCIS,ioos:station:WAVCIS:CSI15:1,2011-01-08T19:00:00Z,28.8332,-90.8320,10.0,3.03,18.0,,'11111222,11111222,99999999' 
WAVCIS,ioos:station:WAVCIS:CSI15:1,2011-01-08T20:00:00Z,28.8332,-90.8320,10.0,1.875,39.0,,'11111222,11111222,99999999' 
WAVCIS,ioos:station:WAVCIS:CSI15:1,2011-01-08T21:00:00Z,28.8332,-90.8320,10.0,1.423,42.0,,'11111222,11111222,99999999' 
WAVCIS,ioos:station:WAVCIS:CSI15:1,2011-01-08T22:00:00Z,28.8332,-90.8320,10.0,1.199,35.0,,'11111222,11111222,99999999' 
WAVCIS,ioos:station:WAVCIS:CSI15:1,2011-01-08T23:00:00Z,28.8332,-90.8320,10.0,2.312,73.0,,'11111222,11111222,99999999' 
WAVCIS,ioos:station:WAVCIS:CSI15:1,2011-01-09T00:00:00Z,28.8332,-90.8320,10.0,1.504,50.0,,'11111222,11111222,99999999' 
WAVCIS,ioos:station:WAVCIS:CSI15:1,2011-01-09T01:00:00Z,28.8332,-90.8320,10.0,1.179,48.0,,'11111222,11111222,99999999' 
WAVCIS,ioos:station:WAVCIS:CSI15:1,2011-01-09T02:00:00Z,28.8332,-90.8320,10.0,1.782,28.0,,'11111222,11111222,99999999' 
WAVCIS,ioos:station:WAVCIS:CSI15:1,2011-01-09T03:00:00Z,28.8332,-90.8320,10.0,4.808,59.0,,'11111222,11111222,99999999' 
WAVCIS,ioos:station:WAVCIS:CSI15:1,2011-01-09T04:00:00Z,28.8332,-90.8320,10.0,4.658,68.0,,'11111222,11111222,99999999' 
WAVCIS,ioos:station:WAVCIS:CSI15:1,2011-01-09T05:00:00Z,28.8332,-90.8320,10.0,6.425,54.0,,'11111222,11111222,99999999' 
WAVCIS,ioos:station:WAVCIS:CSI15:1,2011-01-09T06:00:00Z,28.8332,-90.8320,10.0,7.59,71.0,,'11111222,11111222,99999999' 